Regional Weather Roundup
Issued by NWS Nashville, TN

Home | Current Version | Previous Version | Text Only | Print | Product List | Glossary On
Versions: 1 2 3 4 5 6 7 8 9 10 11 12 13 14 15 16 17 18 19 20 21 22 23 24 25 26 27 28 29 30 31 32 33 34 35 36 37 38 39 40 41 42 43 44 45 46 47 48 49 50
000
ASUS44 KOHX 101910
RWROHX
MIDDLE TENNESSEE HOURLY WEATHER ROUNDUP
NATIONAL WEATHER SERVICE NASHVILLE TN
100 PM CST WED FEB 10 2016

NOTE: "FAIR" INDICATES FEW OR NO CLOUDS BELOW 12,000 FEET WITH
NO SIGNIFICANT WEATHER AND/OR OBSTRUCTIONS TO VISIBILITY.

* THESE REPORTS ARE NOT UNDER NWS QUALITY CONTROL AND MAY NOT
  REPORT WEATHER SUCH AS PRECIPITATION AND FOG.


TNZ005>011-023>034-057-059-062>066-078-080-102000
...NORTHERN MIDDLE TENNESSEE...

CITY           SKY/WX    TMP DP  RH WIND       PRES   REMARKS
CLARKSVILLE    MOSUNNY   25   8  48 W12       30.16F WCI  14
CROSSVILLE     MOSUNNY   21   6  52 W12G20    30.04F WCI   9
DICKSON        MOSUNNY   25  10  54 W12       30.13F WCI  14
LEBANON        MOSUNNY   27   7  42 W9        30.13F WCI  18
LIVINGSTON     SUNNY     23   6  48 W12       30.07F WCI  12
NASHVILLE      PTSUNNY   28   9  44 W10G18    30.17F WCI  19
ROCKWOOD       MOSUNNY   24   4  42 W12G22    30.04F WCI  13
SMYRNA         MOSUNNY   28  12  51 W8        30.19F WCI  20
SPARTA         SUNNY     28  10  47 W9        30.09F WCI  20
$$
TNZ056-058-060-061-075>077-079-093>097-102000
...SOUTHERN MIDDLE TENNESSEE...

CITY           SKY/WX    TMP DP  RH WIND       PRES   REMARKS
COLUMBIA       SUNNY     32  12  43 W5        30.15F WCI  27
FAYETTEVILLE   SUNNY     32   9  37 W10G17    30.16F WCI  24
LEWISBURG      MOSUNNY   31  11  43 VRB7      30.16F WCI  24
MCMINNVILLE    MOSUNNY   25  12  58 W10       30.13F WCI  15
SHELBYVILLE    MOSUNNY   30  16  55 W9        30.17F WCI  22
TULLAHOMA      MOSUNNY   27  10  50 W13       30.14F WCI  16
WINCHESTER     SUNNY     28  12  50 W8        30.15F WCI  20
$$


...KEY TO REMARKS...
VSB - VISIBILITY IN MILES
WCI - WIND CHILL INDEX
HX  - HEAT INDEX




USA.gov is the U.S. government's official web portal to all federal, state and local government web resources and services.